Time,TemperatureF,DewpointF,PressureIn,WindDirection,WindDirectionDegrees,WindSpeedMPH,WindSpeedGustMPH,Humidity,HourlyPrecipIn,Conditions,Clouds,dailyrainin,SoftwareType,DateUTC
2013-08-18 00:02:00,65.8,57.0,30.12,SE,142,3.0,11.0,72,0.00,,,0.00,weatherlink.com 1.10,2013-08-18 04:02:00,
2013-08-18 00:17:00,65.8,57.0,30.12,South,188,9.0,9.0,72,0.00,,,0.00,weatherlink.com 1.10,2013-08-18 04:17:00,
2013-08-18 00:32:00,66.0,56.0,30.12,South,172,5.0,9.0,71,0.00,,,0.00,weatherlink.com 1.10,2013-08-18 04:32:00,
2013-08-18 00:47:00,65.9,56.0,30.12,South,169,3.0,10.0,71,0.00,,,0.00,weatherlink.com 1.10,2013-08-18 04:47:00,
2013-08-18 01:02:00,65.7,56.0,30.13,South,185,3.0,10.0,71,0.00,,,0.00,weatherlink.com 1.10,2013-08-18 05:02:00,
2013-08-18 01:17:00,65.7,56.0,30.13,SSE,147,4.0,13.0,72,0.00,,,0.00,weatherlink.com 1.10,2013-08-18 05:17:00,
2013-08-18 01:32:00,65.6,56.0,30.13,South,188,5.0,11.0,72,0.00,,,0.00,weatherlink.com 1.10,2013-08-18 05:32:00,
2013-08-18 01:47:00,65.2,56.0,30.13,South,189,6.0,8.0,73,0.00,,,0.00,weatherlink.com 1.10,2013-08-18 05:47:00,
2013-08-18 02:02:00,64.7,57.0,30.12,SSW,197,7.0,10.0,75,0.00,,,0.00,weatherlink.com 1.10,2013-08-18 06:02:00,
2013-08-18 02:17:00,64.1,57.0,30.12,SSW,204,7.0,9.0,77,0.00,,,0.00,weatherlink.com 1.10,2013-08-18 06:17:00,
2013-08-18 02:32:00,63.8,57.0,30.12,SSW,202,4.0,9.0,79,0.00,,,0.00,weatherlink.com 1.10,2013-08-18 06:32:00,
2013-08-18 02:47:00,63.2,57.0,30.13,SW,227,4.0,7.0,81,0.00,,,0.00,weatherlink.com 1.10,2013-08-18 06:47:00,
2013-08-18 03:02:00,63.1,58.0,30.12,SSW,204,4.0,8.0,82,0.00,,,0.00,weatherlink.com 1.10,2013-08-18 07:02:00,
2013-08-18 03:17:00,62.7,58.0,30.13,SSW,205,3.0,9.0,83,0.00,,,0.00,weatherlink.com 1.10,2013-08-18 07:17:00,
2013-08-18 03:32:00,62.5,58.0,30.13,SSW,210,4.0,8.0,84,0.00,,,0.00,weatherlink.com 1.10,2013-08-18 07:32:00,
2013-08-18 03:47:00,62.5,58.0,30.13,SW,222,3.0,7.0,85,0.00,,,0.00,weatherlink.com 1.10,2013-08-18 07:47:00,
2013-08-18 04:02:00,62.3,58.0,30.13,SW,218,3.0,7.0,85,0.00,,,0.00,weatherlink.com 1.10,2013-08-18 08:02:00,
2013-08-18 04:17:00,61.9,58.0,30.14,SW,224,2.0,7.0,86,0.00,,,0.00,weatherlink.com 1.10,2013-08-18 08:17:00,
2013-08-18 04:32:00,61.6,57.0,30.14,SW,229,2.0,5.0,86,0.00,,,0.00,weatherlink.com 1.10,2013-08-18 08:32:00,
2013-08-18 04:47:00,61.2,57.0,30.14,North,349,0.0,2.0,86,0.00,,,0.00,weatherlink.com 1.10,2013-08-18 08:47:00,
2013-08-18 05:02:00,60.2,57.0,30.14,North,349,0.0,0.0,88,0.00,,,0.00,weatherlink.com 1.10,2013-08-18 09:02:00,
2013-08-18 05:17:00,59.0,56.0,30.14,North,5,0.0,1.0,90,0.00,,,0.00,weatherlink.com 1.10,2013-08-18 09:17:00,
2013-08-18 05:32:00,57.8,55.0,30.14,North,5,0.0,0.0,90,0.00,,,0.00,weatherlink.com 1.10,2013-08-18 09:32:00,
2013-08-18 05:47:00,57.1,55.0,30.14,North,5,0.0,0.0,91,0.00,,,0.00,weatherlink.com 1.10,2013-08-18 09:47:00,
2013-08-18 06:02:00,56.8,55.0,30.14,North,5,0.0,1.0,93,0.00,,,0.00,weatherlink.com 1.10,2013-08-18 10:02:00,
2013-08-18 06:17:00,56.4,54.0,30.14,NNW,336,0.0,2.0,90,0.00,,,0.00,weatherlink.com 1.10,2013-08-18 10:17:00,
2013-08-18 06:32:00,55.5,53.0,30.14,NNW,336,0.0,1.0,92,0.00,,,0.00,weatherlink.com 1.10,2013-08-18 10:32:00,
2013-08-18 06:47:00,55.4,54.0,30.14,NNW,336,0.0,1.0,93,0.00,,,0.00,weatherlink.com 1.10,2013-08-18 10:47:00,
2013-08-18 07:02:00,56.4,55.0,30.14,SSW,200,1.0,3.0,94,0.00,,,0.00,weatherlink.com 1.10,2013-08-18 11:02:00,
2013-08-18 07:17:00,60.0,56.0,30.14,SW,221,2.0,6.0,85,0.00,,,0.00,weatherlink.com 1.10,2013-08-18 11:17:00,
2013-08-18 07:32:00,62.2,56.0,30.14,East,80,0.0,4.0,80,0.00,,,0.00,weatherlink.com 1.10,2013-08-18 11:32:00,
2013-08-18 07:47:00,63.0,57.0,30.15,NE,53,0.0,1.0,80,0.00,,,0.00,weatherlink.com 1.10,2013-08-18 11:47:00,
2013-08-18 08:02:00,62.9,57.0,30.15,SW,234,2.0,2.0,80,0.00,,,0.00,weatherlink.com 1.10,2013-08-18 12:02:00,
2013-08-18 08:17:00,65.4,56.0,30.15,SW,222,4.0,8.0,71,0.00,,,0.00,weatherlink.com 1.10,2013-08-18 12:17:00,
2013-08-18 08:32:00,65.5,55.0,30.15,SSW,196,2.0,8.0,70,0.00,,,0.00,weatherlink.com 1.10,2013-08-18 12:32:00,
2013-08-18 08:47:00,66.6,57.0,30.15,WNW,290,2.0,9.0,70,0.00,,,0.00,weatherlink.com 1.10,2013-08-18 12:47:00,
2013-08-18 09:02:00,67.5,57.0,30.16,NNW,337,3.0,7.0,68,0.00,,,0.00,weatherlink.com 1.10,2013-08-18 13:02:00,
2013-08-18 09:17:00,67.7,58.0,30.16,ENE,58,0.0,2.0,72,0.00,,,0.00,weatherlink.com 1.10,2013-08-18 13:17:00,
2013-08-18 09:32:00,69.3,57.0,30.16,WSW,250,4.0,8.0,65,0.00,,,0.00,weatherlink.com 1.10,2013-08-18 13:32:00,
2013-08-18 09:47:00,70.1,57.0,30.15,SW,223,6.0,10.0,64,0.00,,,0.00,weatherlink.com 1.10,2013-08-18 13:47:00,
2013-08-18 10:02:00,70.6,58.0,30.15,SW,230,8.0,12.0,64,0.00,,,0.00,weatherlink.com 1.10,2013-08-18 14:02:00,
2013-08-18 10:18:00,70.6,56.0,30.15,SW,236,7.0,14.0,61,0.00,,,0.00,weatherlink.com 1.10,2013-08-18 14:18:00,
2013-08-18 10:33:00,71.4,57.0,30.15,SSW,213,6.0,14.0,60,0.00,,,0.00,weatherlink.com 1.10,2013-08-18 14:33:00,
2013-08-18 10:48:00,71.9,56.0,30.15,SW,236,7.0,14.0,57,0.00,,,0.00,weatherlink.com 1.10,2013-08-18 14:48:00,
2013-08-18 11:03:00,72.3,56.0,30.14,WSW,242,11.0,16.0,57,0.00,,,0.00,weatherlink.com 1.10,2013-08-18 15:03:00,
2013-08-18 11:18:00,73.2,57.0,30.14,West,271,8.0,11.0,58,0.00,,,0.00,weatherlink.com 1.10,2013-08-18 15:18:00,
2013-08-18 12:18:00,74.8,55.0,30.12,SW,236,14.0,19.0,51,0.00,,,0.00,weatherlink.com 1.10,2013-08-18 16:18:00,
2013-08-18 12:33:00,74.9,55.0,30.12,SW,221,4.0,16.0,50,0.00,,,0.00,weatherlink.com 1.10,2013-08-18 16:33:00,
2013-08-18 12:48:00,75.7,55.0,30.12,West,260,7.0,19.0,48,0.00,,,0.00,weatherlink.com 1.10,2013-08-18 16:48:00,
2013-08-18 13:03:00,75.8,53.0,30.12,West,271,11.0,20.0,45,0.00,,,0.00,weatherlink.com 1.10,2013-08-18 17:03:00,
2013-08-18 13:18:00,76.4,55.0,30.11,West,263,7.0,16.0,47,0.00,,,0.00,weatherlink.com 1.10,2013-08-18 17:18:00,
2013-08-18 13:33:00,76.7,55.0,30.11,SW,229,9.0,18.0,47,0.00,,,0.00,weatherlink.com 1.10,2013-08-18 17:33:00,
2013-08-18 13:48:00,77.0,55.0,30.11,SW,231,13.0,18.0,46,0.00,,,0.00,weatherlink.com 1.10,2013-08-18 17:48:00,
2013-08-18 14:03:00,77.3,55.0,30.10,West,264,6.0,15.0,46,0.00,,,0.00,weatherlink.com 1.10,2013-08-18 18:03:00,
2013-08-18 14:18:00,77.9,56.0,30.10,WSW,252,7.0,14.0,47,0.00,,,0.00,weatherlink.com 1.10,2013-08-18 18:18:00,
2013-08-18 14:33:00,77.2,54.0,30.10,West,269,8.0,18.0,45,0.00,,,0.00,weatherlink.com 1.10,2013-08-18 18:33:00,
2013-08-18 14:48:00,77.7,55.0,30.10,WSW,257,8.0,14.0,46,0.00,,,0.00,weatherlink.com 1.10,2013-08-18 18:48:00,
2013-08-18 15:03:00,77.7,55.0,30.10,West,276,13.0,15.0,46,0.00,,,0.00,weatherlink.com 1.10,2013-08-18 19:03:00,
2013-08-18 15:18:00,78.0,57.0,30.09,WSW,247,6.0,15.0,49,0.00,,,0.00,weatherlink.com 1.10,2013-08-18 19:18:00,
2013-08-18 15:33:00,78.3,55.0,30.09,SW,214,6.0,14.0,44,0.00,,,0.00,weatherlink.com 1.10,2013-08-18 19:33:00,
2013-08-18 15:48:00,78.6,56.0,30.08,West,273,8.0,14.0,46,0.00,,,0.00,weatherlink.com 1.10,2013-08-18 19:48:00,
2013-08-18 16:03:00,78.9,56.0,30.08,WSW,248,6.0,14.0,46,0.00,,,0.00,weatherlink.com 1.10,2013-08-18 20:03:00,
2013-08-18 16:18:00,79.0,56.0,30.07,WSW,239,6.0,14.0,45,0.00,,,0.00,weatherlink.com 1.10,2013-08-18 20:18:00,
2013-08-18 16:33:00,79.2,55.0,30.07,WNW,297,5.0,12.0,44,0.00,,,0.00,weatherlink.com 1.10,2013-08-18 20:33:00,
2013-08-18 16:48:00,80.0,56.0,30.06,West,267,8.0,10.0,44,0.00,,,0.00,weatherlink.com 1.10,2013-08-18 20:48:00,
2013-08-18 17:03:00,80.1,57.0,30.06,SSW,198,7.0,12.0,45,0.00,,,0.00,weatherlink.com 1.10,2013-08-18 21:03:00,
2013-08-18 17:18:00,79.5,57.0,30.06,South,187,4.0,9.0,47,0.00,,,0.00,weatherlink.com 1.10,2013-08-18 21:18:00,
2013-08-18 17:33:00,78.2,59.0,30.06,South,178,2.0,11.0,52,0.00,,,0.00,weatherlink.com 1.10,2013-08-18 21:33:00,
2013-08-18 17:48:00,75.3,60.0,30.06,SSW,192,6.0,11.0,59,0.00,,,0.00,weatherlink.com 1.10,2013-08-18 21:48:00,
2013-08-18 18:04:00,74.1,59.0,30.06,South,190,4.0,12.0,59,0.00,,,0.00,weatherlink.com 1.10,2013-08-18 22:04:00,
2013-08-18 18:18:00,73.8,58.0,30.06,SSW,195,5.0,13.0,59,0.00,,,0.00,weatherlink.com 1.10,2013-08-18 22:18:00,
2013-08-18 18:34:00,73.5,59.0,30.06,South,184,3.0,10.0,60,0.00,,,0.00,weatherlink.com 1.10,2013-08-18 22:34:00,
2013-08-18 18:49:00,73.1,58.0,30.06,South,187,8.0,13.0,59,0.00,,,0.00,weatherlink.com 1.10,2013-08-18 22:49:00,
2013-08-18 19:04:00,72.8,57.0,30.05,SSW,199,5.0,9.0,59,0.00,,,0.00,weatherlink.com 1.10,2013-08-18 23:04:00,
2013-08-18 19:19:00,72.3,56.0,30.05,SSW,209,7.0,10.0,57,0.00,,,0.00,weatherlink.com 1.10,2013-08-18 23:19:00,
2013-08-18 19:34:00,71.7,55.0,30.05,SSW,208,6.0,9.0,56,0.00,,,0.00,weatherlink.com 1.10,2013-08-18 23:34:00,
2013-08-18 19:49:00,70.5,55.0,30.05,SSW,207,4.0,7.0,59,0.00,,,0.00,weatherlink.com 1.10,2013-08-18 23:49:00,
2013-08-18 20:04:00,69.3,55.0,30.04,South,186,2.0,7.0,60,0.00,,,0.00,weatherlink.com 1.10,2013-08-19 00:04:00,
2013-08-18 20:19:00,68.8,55.0,30.04,South,175,1.0,9.0,61,0.00,,,0.00,weatherlink.com 1.10,2013-08-19 00:19:00,
2013-08-18 20:34:00,68.9,54.0,30.03,South,188,4.0,9.0,59,0.00,,,0.00,weatherlink.com 1.10,2013-08-19 00:34:00,
2013-08-18 20:49:00,68.6,54.0,30.03,South,182,3.0,9.0,60,0.00,,,0.00,weatherlink.com 1.10,2013-08-19 00:49:00,
2013-08-18 21:04:00,68.1,54.0,30.03,South,176,2.0,7.0,61,0.00,,,0.00,weatherlink.com 1.10,2013-08-19 01:04:00,
2013-08-18 21:19:00,67.9,54.0,30.02,South,186,3.0,7.0,61,0.00,,,0.00,weatherlink.com 1.10,2013-08-19 01:19:00,
2013-08-18 21:34:00,68.2,54.0,30.03,SSW,203,6.0,7.0,60,0.00,,,0.00,weatherlink.com 1.10,2013-08-19 01:34:00,
2013-08-18 21:49:00,67.5,54.0,30.02,SSW,200,4.0,8.0,63,0.00,,,0.00,weatherlink.com 1.10,2013-08-19 01:49:00,
2013-08-18 22:04:00,67.2,55.0,30.02,SSW,193,4.0,8.0,66,0.00,,,0.00,weatherlink.com 1.10,2013-08-19 02:04:00,
2013-08-18 22:19:00,66.7,56.0,30.02,SSW,200,5.0,7.0,68,0.00,,,0.00,weatherlink.com 1.10,2013-08-19 02:19:00,
2013-08-18 22:34:00,66.2,56.0,30.02,SSW,213,7.0,7.0,70,0.00,,,0.00,weatherlink.com 1.10,2013-08-19 02:34:00,
2013-08-18 22:49:00,66.0,56.0,30.02,SSW,209,4.0,6.0,71,0.00,,,0.00,weatherlink.com 1.10,2013-08-19 02:49:00,
2013-08-18 23:04:00,65.1,56.0,30.02,SW,226,3.0,7.0,73,0.00,,,0.00,weatherlink.com 1.10,2013-08-19 03:04:00,
2013-08-18 23:19:00,65.0,55.0,30.02,SW,217,3.0,5.0,69,0.00,,,0.00,weatherlink.com 1.10,2013-08-19 03:19:00,
2013-08-18 23:34:00,65.2,54.0,30.02,SSW,212,2.0,5.0,67,0.00,,,0.00,weatherlink.com 1.10,2013-08-19 03:34:00,
2013-08-18 23:49:00,64.3,53.0,30.02,SSW,206,3.0,4.0,68,0.00,,,0.00,weatherlink.com 1.10,2013-08-19 03:49:00,